PBD6915 UUEE-URMM

Flight info

Callsign PBD6915
Flight time N/A
Altitude 37000
Route EMGAS T828 NIBIM M54 LARIN
Aircraft B738/M-SDE2E3FGHIRWXY/LB1

Departure

Time N/A
Airport Sheremetyevo International Airport (UUEE)

Arrival

Time 2026-04-14 19:12
Airport Mineralnye Vody Airport (URMM)
Time Latitude Longitude Altitude Speed Heading
2026-04-14 18:04 51.15057 40.64132 36947 ft 448 kts 170°
2026-04-14 18:04 51.08889 40.65570 36943 ft 448 kts 170°
2026-04-14 18:05 51.02722 40.67040 36939 ft 448 kts 170°
2026-04-14 18:05 50.96547 40.68514 36937 ft 449 kts 170°
2026-04-14 18:06 50.90368 40.69983 36939 ft 449 kts 170°
2026-04-14 18:06 50.84174 40.71451 36939 ft 450 kts 170°
2026-04-14 18:07 50.77997 40.72910 36943 ft 450 kts 170°
2026-04-14 18:07 50.71815 40.74367 36943 ft 451 kts 170°
2026-04-14 18:08 50.65607 40.75826 36942 ft 451 kts 170°
2026-04-14 18:08 50.59553 40.78292 36950 ft 449 kts 156°
2026-04-14 18:09 50.54139 40.83151 36955 ft 448 kts 147°
2026-04-14 18:09 50.48875 40.88435 36941 ft 449 kts 147°
2026-04-14 18:10 50.43593 40.93671 36942 ft 449 kts 147°
2026-04-14 18:10 50.38310 40.98839 36948 ft 450 kts 147°
2026-04-14 18:11 50.32988 41.04016 36947 ft 450 kts 147°
2026-04-14 18:11 50.27663 41.09182 36953 ft 450 kts 148°
2026-04-14 18:12 50.22334 41.14340 36970 ft 451 kts 148°
2026-04-14 18:12 50.16998 41.19493 36953 ft 451 kts 148°
2026-04-14 18:13 50.11661 41.24633 36961 ft 450 kts 148°
2026-04-14 18:13 50.06363 41.29723 36967 ft 450 kts 148°
2026-04-14 18:14 50.00993 41.34868 36970 ft 450 kts 148°
2026-04-14 18:14 49.95360 41.38895 36978 ft 450 kts 163°
2026-04-14 18:15 49.89201 41.40699 36977 ft 451 kts 170°
2026-04-14 18:15 49.83007 41.42221 36980 ft 450 kts 170°
2026-04-14 18:16 49.76810 41.43783 36979 ft 450 kts 169°
2026-04-14 18:16 49.70631 41.45382 36984 ft 450 kts 169°
2026-04-14 18:17 49.64452 41.46992 36987 ft 450 kts 169°
2026-04-14 18:17 49.58267 41.48602 36990 ft 450 kts 169°
2026-04-14 18:18 49.52132 41.50194 36994 ft 450 kts 169°
2026-04-14 18:18 49.45937 41.51796 36998 ft 451 kts 169°
2026-04-14 18:19 49.39746 41.53393 37003 ft 451 kts 169°
2026-04-14 18:19 49.33544 41.54988 37005 ft 452 kts 169°
2026-04-14 18:20 49.27363 41.56573 37002 ft 452 kts 169°
2026-04-14 18:20 49.21153 41.58162 37011 ft 453 kts 170°
2026-04-14 18:21 49.14933 41.59750 37011 ft 453 kts 170°
2026-04-14 18:21 49.08703 41.61337 37014 ft 454 kts 170°
2026-04-14 18:22 49.02464 41.62921 37017 ft 454 kts 170°
2026-04-14 18:22 48.96213 41.64504 37020 ft 455 kts 170°
2026-04-14 18:23 48.90009 41.66072 37023 ft 455 kts 170°
2026-04-14 18:23 48.83751 41.67649 37025 ft 456 kts 170°
2026-04-14 18:24 48.77490 41.69223 37029 ft 456 kts 170°
2026-04-14 18:24 48.72283 41.70528 37029 ft 456 kts 170°
2026-04-14 18:25 48.66016 41.72097 37029 ft 457 kts 170°
2026-04-14 18:25 48.59736 41.73664 37032 ft 457 kts 170°
2026-04-14 18:26 48.53448 41.75230 37036 ft 458 kts 170°
2026-04-14 18:26 48.47160 41.76792 37041 ft 458 kts 170°
2026-04-14 18:27 48.40861 41.78353 37042 ft 459 kts 170°
2026-04-14 18:27 48.34546 41.79917 37042 ft 459 kts 170°
2026-04-14 18:28 48.28367 41.81943 37046 ft 459 kts 166°
2026-04-14 18:28 48.22195 41.84251 37051 ft 460 kts 166°
2026-04-14 18:29 48.15981 41.86541 37054 ft 460 kts 166°
2026-04-14 18:29 48.09759 41.88779 37057 ft 460 kts 166°
2026-04-14 18:30 48.03528 41.90999 37059 ft 460 kts 166°
2026-04-14 18:30 47.97295 41.93216 37064 ft 460 kts 166°
2026-04-14 18:31 47.91064 41.95429 37070 ft 461 kts 166°
2026-04-14 18:31 47.84811 41.97646 37072 ft 461 kts 166°
2026-04-14 18:32 47.78570 41.99850 37072 ft 461 kts 166°
2026-04-14 18:32 47.72359 42.02035 37078 ft 462 kts 167°
2026-04-14 18:33 47.66095 42.04232 37083 ft 462 kts 167°
2026-04-14 18:34 47.53560 42.08616 37088 ft 463 kts 167°
2026-04-14 18:34 47.47281 42.10805 37089 ft 464 kts 167°
2026-04-14 18:35 47.40987 42.12993 37094 ft 464 kts 167°
2026-04-14 18:35 47.34685 42.15179 37097 ft 465 kts 167°
2026-04-14 18:36 47.28374 42.17362 37100 ft 465 kts 167°
2026-04-14 18:36 47.22108 42.19525 37103 ft 466 kts 167°
2026-04-14 18:37 47.15777 42.21705 37108 ft 466 kts 167°
2026-04-14 18:37 47.09452 42.23878 37109 ft 467 kts 167°
2026-04-14 18:38 47.03111 42.26051 37118 ft 467 kts 167°
2026-04-14 18:38 46.96761 42.27871 37120 ft 468 kts 171°
2026-04-14 18:39 46.90331 42.29342 37125 ft 468 kts 171°
2026-04-14 18:39 46.83898 42.30842 37126 ft 468 kts 171°
2026-04-14 18:40 46.77463 42.32396 37132 ft 468 kts 171°
2026-04-14 18:40 46.71027 42.33953 37132 ft 468 kts 171°
2026-04-14 18:41 46.64634 42.35792 37132 ft 468 kts 167°
2026-04-14 18:41 46.58280 42.37914 37141 ft 468 kts 167°
2026-04-14 18:42 46.51930 42.40020 37145 ft 467 kts 167°
2026-04-14 18:42 46.45579 42.42075 37141 ft 467 kts 168°
2026-04-14 18:43 46.39233 42.44107 37147 ft 467 kts 168°
2026-04-14 18:43 46.32915 42.46125 37145 ft 467 kts 168°
2026-04-14 18:44 46.26565 42.48150 37151 ft 468 kts 168°
2026-04-14 18:44 46.20193 42.50179 37151 ft 468 kts 168°
2026-04-14 18:45 46.13819 42.52204 37160 ft 469 kts 168°
2026-04-14 18:45 46.07426 42.54220 37158 ft 471 kts 168°
2026-04-14 18:46 46.04200 42.55194 36788 ft 477 kts 169°
2026-04-14 18:46 46.00986 42.56141 36275 ft 476 kts 169°
2026-04-14 18:46 45.97746 42.57087 35658 ft 476 kts 169°
2026-04-14 18:46 45.94492 42.58038 35017 ft 477 kts 169°
2026-04-14 18:47 45.91221 42.58997 34451 ft 476 kts 168°
2026-04-14 18:47 45.87990 42.59947 33903 ft 473 kts 168°
2026-04-14 18:47 45.84775 42.60894 33391 ft 469 kts 168°
2026-04-14 18:47 45.81592 42.61832 32910 ft 465 kts 169°
2026-04-14 18:48 45.78485 42.62747 32451 ft 460 kts 169°
2026-04-14 18:48 45.75313 42.63679 31996 ft 456 kts 169°
2026-04-14 18:48 45.72213 42.64589 31545 ft 452 kts 169°
2026-04-14 18:48 45.69139 42.65491 31111 ft 448 kts 169°
2026-04-14 18:49 45.66141 42.66369 30681 ft 445 kts 169°
2026-04-14 18:49 45.63120 42.67252 30247 ft 441 kts 169°
2026-04-14 18:49 45.60129 42.68126 29734 ft 438 kts 169°
2026-04-14 18:49 45.57160 42.68992 29284 ft 433 kts 169°
2026-04-14 18:50 45.54226 42.69848 28843 ft 428 kts 169°
2026-04-14 18:50 45.51327 42.70693 28412 ft 423 kts 169°
2026-04-14 18:50 45.48459 42.71527 27979 ft 419 kts 169°
2026-04-14 18:50 45.45618 42.72353 27546 ft 415 kts 169°
2026-04-14 18:51 45.42814 42.73249 27130 ft 411 kts 167°
2026-04-14 18:51 45.40048 42.74218 26701 ft 408 kts 167°
2026-04-14 18:51 45.37300 42.75206 26294 ft 405 kts 166°
2026-04-14 18:51 45.34574 42.76185 25877 ft 403 kts 167°
2026-04-14 18:52 45.31863 42.77149 25466 ft 401 kts 167°
2026-04-14 18:52 45.29152 42.78104 25070 ft 401 kts 167°
2026-04-14 18:52 45.26440 42.79052 24669 ft 402 kts 167°
2026-04-14 18:52 45.23724 42.79997 24259 ft 400 kts 167°
2026-04-14 18:53 45.21026 42.80933 23846 ft 398 kts 167°
2026-04-14 18:53 45.18343 42.81864 23366 ft 396 kts 167°
2026-04-14 18:53 45.15678 42.82787 22923 ft 392 kts 167°
2026-04-14 18:53 45.13043 42.83699 22512 ft 388 kts 167°
2026-04-14 18:54 45.10454 42.84595 22115 ft 385 kts 167°
2026-04-14 18:54 45.07864 42.85490 21709 ft 382 kts 167°
2026-04-14 18:54 45.05298 42.86376 21315 ft 378 kts 167°
2026-04-14 18:54 45.02745 42.87256 20902 ft 376 kts 167°
2026-04-14 18:55 45.00224 42.88121 20638 ft 369 kts 168°
2026-04-14 18:55 44.97747 42.88970 20318 ft 366 kts 168°
2026-04-14 18:55 44.95271 42.89816 19950 ft 366 kts 168°
2026-04-14 18:55 44.92789 42.90663 19570 ft 366 kts 168°
2026-04-14 18:56 44.90320 42.91506 19181 ft 364 kts 168°
2026-04-14 18:56 44.87868 42.92343 18768 ft 362 kts 168°
2026-04-14 18:56 44.85426 42.93176 18377 ft 359 kts 168°
2026-04-14 18:56 44.83001 42.94003 17929 ft 357 kts 168°
2026-04-14 18:57 44.80596 42.94822 17536 ft 353 kts 168°
2026-04-14 18:57 44.78219 42.95631 17142 ft 350 kts 169°
2026-04-14 18:57 44.75860 42.96433 16753 ft 347 kts 169°
2026-04-14 18:57 44.73524 42.97226 16365 ft 344 kts 169°
2026-04-14 18:58 44.71204 42.98024 15986 ft 341 kts 169°
2026-04-14 18:58 44.68908 42.98820 15606 ft 338 kts 169°
2026-04-14 18:58 44.66667 42.99597 15240 ft 336 kts 169°
2026-04-14 18:58 44.64402 43.00381 14865 ft 334 kts 169°
2026-04-14 18:59 44.62155 43.01157 14502 ft 331 kts 169°
2026-04-14 18:59 44.59927 43.01954 14128 ft 330 kts 166°
2026-04-14 18:59 44.57802 43.03177 13736 ft 330 kts 157°
2026-04-14 18:59 44.55761 43.04639 13346 ft 329 kts 155°
2026-04-14 19:00 44.53765 43.06113 12980 ft 326 kts 155°
2026-04-14 19:00 44.51752 43.07569 12600 ft 324 kts 156°
2026-04-14 19:00 44.49749 43.08977 12245 ft 321 kts 157°
2026-04-14 19:00 44.47752 43.10360 11886 ft 319 kts 157°
2026-04-14 19:01 44.45764 43.11728 11532 ft 317 kts 157°
2026-04-14 19:01 44.43947 43.13478 11155 ft 321 kts 136°
2026-04-14 19:01 44.42679 43.15970 10850 ft 322 kts 123°
2026-04-14 19:01 44.41498 43.18724 10534 ft 324 kts 122°
2026-04-14 19:02 44.40344 43.21399 10401 ft 317 kts 123°
2026-04-14 19:02 44.39225 43.23961 10236 ft 309 kts 123°
2026-04-14 19:02 44.38097 43.26523 9728 ft 311 kts 123°
2026-04-14 19:02 44.36967 43.29074 9325 ft 306 kts 123°
2026-04-14 19:03 44.35849 43.31595 8986 ft 305 kts 123°
2026-04-14 19:03 44.34734 43.34110 8649 ft 304 kts 123°
2026-04-14 19:03 44.33623 43.36613 8313 ft 302 kts 123°
2026-04-14 19:03 44.32515 43.39105 8000 ft 301 kts 123°
2026-04-14 19:04 44.31412 43.41583 7686 ft 300 kts 123°
2026-04-14 19:04 44.30062 43.43749 7345 ft 294 kts 148°
2026-04-14 19:04 44.28243 43.44859 7066 ft 281 kts 175°
2026-04-14 19:04 44.26338 43.44839 6791 ft 269 kts 197°
2026-04-14 19:05 44.24635 43.43949 6498 ft 258 kts 216°
2026-04-14 19:05 44.23119 43.42634 6225 ft 255 kts 218°
2026-04-14 19:05 44.21631 43.41303 5946 ft 254 kts 219°
2026-04-14 19:05 44.20146 43.39977 5672 ft 252 kts 219°
2026-04-14 19:06 44.18691 43.38681 5393 ft 244 kts 219°
2026-04-14 19:06 44.17301 43.37453 5136 ft 235 kts 219°
2026-04-14 19:06 44.15944 43.36258 4893 ft 227 kts 219°
2026-04-14 19:06 44.14630 43.35102 4657 ft 219 kts 220°
2026-04-14 19:07 44.13401 43.33949 4442 ft 203 kts 231°
2026-04-14 19:07 44.12868 43.32357 4242 ft 173 kts 276°
2026-04-14 19:07 44.13199 43.30812 4129 ft 164 kts 289°
2026-04-14 19:07 44.13565 43.29360 4027 ft 153 kts 293°
2026-04-14 19:08 44.13992 43.28051 3985 ft 147 kts 294°
2026-04-14 19:08 44.14434 43.26799 3882 ft 139 kts 296°
2026-04-14 19:08 44.14888 43.25681 3695 ft 127 kts 298°
2026-04-14 19:08 44.15337 43.24640 3538 ft 124 kts 298°
2026-04-14 19:09 44.15783 43.23628 3377 ft 124 kts 299°
2026-04-14 19:09 44.16242 43.22600 3208 ft 126 kts 299°
2026-04-14 19:09 44.16706 43.21565 3031 ft 126 kts 299°
2026-04-14 19:09 44.17171 43.20530 2858 ft 126 kts 299°
2026-04-14 19:10 44.17480 43.19843 2741 ft 127 kts 298°
2026-04-14 19:10 44.17952 43.18793 2573 ft 129 kts 298°
2026-04-14 19:10 44.18430 43.17729 2370 ft 131 kts 299°
2026-04-14 19:10 44.18921 43.16639 2171 ft 135 kts 299°
2026-04-14 19:11 44.19426 43.15519 1961 ft 138 kts 298°
2026-04-14 19:11 44.19940 43.14378 1756 ft 139 kts 299°
2026-04-14 19:11 44.20457 43.13247 1563 ft 139 kts 299°
2026-04-14 19:11 44.20955 43.12094 1383 ft 139 kts 298°
2026-04-14 19:12 44.21478 43.10936 1185 ft 143 kts 300°
2026-04-14 19:12 44.22010 43.09780 1061 ft 135 kts 301°
2026-04-14 19:12 44.22671 43.08325 1050 ft 26 kts 304°
2026-04-14 19:13 44.22745 43.08203 1049 ft 8 kts 317°
2026-04-14 19:13 44.22748 43.08171 1049 ft 1 kts 233°
2026-04-14 19:13 44.22739 43.08170 1049 ft 3 kts 183°
2026-04-14 19:13 44.22718 43.08203 1049 ft 8 kts 120°
2026-04-14 19:14 44.22676 43.08300 1050 ft 15 kts 121°
2026-04-14 19:14 44.22617 43.08435 1053 ft 18 kts 122°
2026-04-14 19:14 44.22539 43.08607 1053 ft 23 kts 123°
2026-04-14 19:14 44.22425 43.08785 1053 ft 26 kts 143°
2026-04-14 19:15 44.22266 43.08910 1052 ft 25 kts 152°
2026-04-14 19:15 44.22134 43.09008 1052 ft 20 kts 152°
2026-04-14 19:15 44.22014 43.09096 1050 ft 19 kts 152°
2026-04-14 19:15 44.21926 43.09114 1050 ft 13 kts 205°
2026-04-14 19:16 44.21858 43.09038 1051 ft 13 kts 247°
2026-04-14 19:16 44.21837 43.08995 1050 ft 4 kts 219°
2026-04-14 19:16 44.21812 43.08972 1050 ft 4 kts 213°
2026-04-14 19:16 44.21794 43.08955 1050 ft 0 kts 213°